GFSNIL_con_lsi_000.txt.gz
Lid_Strength_Index
1 1 1 1 1 1 1 1 0 0 0 0 0 0 0 1 1 1 1 1 1 1
1 1 1 1 1 1 1 0 0 0 0 0 0 0 0 1 1 1 1 1 1 1
1 0 1 1 1 1 1 0 1 0 0 0 0 0 0 1 1 1 1 1 1 1
1 0 1 1 1 1 1 0 1 1 1 1 1 0 1 1 1 1 1 1 1 1
1 1 1 1 1 1 1 0 0 0 1 1 1 1 1 1 1 1 2 1 1 1
1 1 1 1 1 1 1 1 0 1 1 1 1 1 1 1 1 1 1 1 1 1
1 1 1 1 1 1 1 1 1 0 1 1 1 1 1 1 1 1 1 1 1 1
1 0 0 1 1 1 1 1 1 1 0 1 1 1 1 1 1 1 1 1 1 1
1 1 1 1 1 1 1 1 1 1 1 1 4 9 5 1 1 1 1 1 1 2
1 1 1 1 1 1 1 1 1 1 1 1 3 8 8 5 1 1 1 1 2 2
1 1 1 1 1 1 1 1 1 1 1 1 5 7 7 4 1 1 1 1 1 1
1 1 1 2 2 1 1 1 1 1 1 1 2 8 9 3 1 1 1 1 1 1
1 1 1 1 1 1 1 1 1 1 1 2 1 8 8 6 1 2 1 1 4 7
1 1 1 1 1 1 1 1 1 1 1 1 1 3 8 9 2 1 1 1 1 4

GFSNIL_con_lsi_003.txt.gz
Lid_Strength_Index
2 2 2 2 2 2 2 2 2 1 1 1 1 1 1 2 1 1 2 2 2 1
2 2 2 2 2 2 2 1 1 1 2 2 1 1 1 1 1 1 2 2 2 1
1 1 1 1 1 2 2 2 2 2 2 1 1 1 1 1 1 2 2 1 1 1
2 1 2 2 1 1 2 1 1 2 2 1 2 1 1 1 1 2 1 1 1 1
2 2 2 2 1 1 2 1 1 1 1 1 1 1 1 1 1 1 2 2 1 1
2 2 2 2 1 1 1 2 2 1 1 1 1 1 1 1 1 1 2 2 1 2
2 3 2 2 1 1 1 2 2 1 1 1 1 1 1 1 1 1 1 1 2 1
2 2 2 2 1 1 1 2 2 1 1 1 1 1 1 1 1 1 1 1 1 1
4 2 1 3 1 2 2 1 3 3 3 4 4 7 5 2 1 1 1 2 1 1
3 2 2 2 2 3 2 2 2 3 4 6 6 7 7 4 1 1 1 2 3 2
2 2 2 2 2 3 2 2 3 3 4 6 8 10 8 5 1 2 2 3 3 4
2 3 2 2 2 2 3 2 2 3 4 5 7 8 6 3 2 3 2 2 3 2
2 2 3 2 2 2 2 3 1 2 4 5 6 10 9 4 2 3 4 4 3 5
2 2 2 2 2 2 2 2 3 2 3 3 6 8 11 8 3 2 3 4 6 5

GFSNIL_con_lsi_009.txt.gz
Lid_Strength_Index
4 4 4 3 4 4 4 4 3 2 2 2 2 2 2 2 3 2 3 3 2 2
3 4 4 3 3 3 3 3 3 2 2 2 2 2 2 3 2 1 2 2 2 1
2 3 4 3 3 3 3 3 3 2 2 2 2 2 2 2 1 2 1 2 2 1
3 3 3 3 3 3 3 3 3 3 3 3 3 2 3 2 2 1 2 1 2 2
3 3 3 3 3 3 3 3 2 2 2 2 2 2 2 2 2 2 2 2 1 2
3 3 3 3 3 3 2 3 2 2 2 2 2 2 2 2 2 2 1 1 2 2
3 3 3 3 3 2 2 2 2 2 2 2 2 2 2 2 1 1 2 1 1 1
3 3 3 2 2 2 3 2 2 2 2 2 1 1 2 2 2 2 1 1 1 1
3 3 2 3 3 3 3 3 2 2 2 2 1 8 5 2 1 1 1 2 1 2
3 3 2 3 3 4 4 4 3 3 3 3 4 8 7 4 1 1 2 2 1 1
3 3 3 3 3 5 5 5 5 4 4 3 4 9 8 5 1 1 2 1 1 2
3 4 4 4 4 5 5 5 5 5 4 4 4 9 9 4 1 2 2 2 2 1
3 3 3 4 4 5 4 5 5 6 5 6 5 10 9 4 2 4 3 3 4 6
3 3 4 4 4 4 4 4 6 6 7 6 6 7 10 8 3 3 5 4 5 6

GFSNIL_con_lsi_012.txt.gz
Lid_Strength_Index
3 3 3 2 3 3 3 2 2 1 1 1 1 1 1 1 1 1 1 1 1 1
3 3 3 2 2 2 2 2 1 1 1 1 1 1 1 1 1 1 1 1 1 1
3 3 2 2 2 2 2 1 1 1 1 1 1 1 1 1 1 1 1 1 1 1
2 3 3 2 2 2 2 2 1 1 1 1 1 1 1 1 1 1 1 1 1 1
2 2 2 2 2 2 2 1 1 1 1 1 2 1 1 1 1 1 2 2 1 2
2 2 2 2 2 2 2 2 1 1 1 1 1 2 1 1 1 1 1 1 1 1
3 2 2 2 2 2 1 2 2 1 1 1 1 1 1 1 2 1 1 1 1 1
2 2 2 2 2 2 1 1 1 1 1 1 1 1 1 1 1 1 1 1 1 1
2 2 2 2 2 2 2 1 1 1 1 1 1 8 5 2 1 1 1 2 1 2
2 2 2 2 2 2 3 2 2 2 1 2 2 9 8 5 1 1 1 1 1 1
2 2 2 2 3 4 3 3 2 3 2 2 3 9 9 6 1 1 1 1 1 1
2 3 3 3 3 3 4 4 3 3 3 2 4 9 9 3 1 1 1 1 1 1
3 3 3 3 4 3 3 4 4 3 2 4 3 10 9 4 1 2 2 2 2 6
2 3 2 3 3 3 3 4 4 4 4 3 3 5 10 7 2 2 2 2 3 2

GFSNIL_con_lsi_015.txt.gz
Lid_Strength_Index
0 0 0 0 0 0 1 0 -0 -0 -1 -1 -1 -0 -0 0 0 -0 0 1 1 0
1 1 1 0 -0 0 0 0 -0 -0 -0 -0 -1 -0 -0 0 0 0 0 1 1 1
1 0 0 0 1 0 -0 -0 -0 0 -0 -0 -0 -0 0 0 0 1 1 1 1 1
1 0 0 0 0 0 -0 -0 0 0 0 0 0 0 0 1 1 1 1 1 1 1
1 0 0 1 0 0 0 -0 0 0 0 0 0 0 1 1 1 1 2 1 1 2
1 1 1 0 0 0 0 0 0 0 0 0 1 1 0 1 1 1 1 1 1 1
1 1 1 0 0 0 0 0 0 0 0 0 0 1 1 1 1 1 1 1 1 1
1 1 1 0 0 0 0 0 0 0 0 0 0 0 0 0 1 1 1 1 1 0
1 1 1 1 1 0 0 0 0 0 0 1 0 7 4 1 1 1 1 1 1 1
1 1 1 1 1 1 1 0 1 1 0 1 0 9 7 4 0 1 1 1 1 1
1 1 1 1 1 1 1 1 1 1 1 1 0 9 8 6 0 1 1 1 1 1
1 1 1 1 1 1 1 1 1 1 1 1 1 10 9 3 1 1 1 1 0 0
1 1 1 1 1 1 1 1 1 1 0 3 1 10 9 3 1 2 2 1 1 5
1 1 1 1 0 1 1 1 1 1 1 1 1 3 10 7 1 1 2 2 1 1

GFSNIL_con_lsi_021.txt.gz
Lid_Strength_Index
0 1 1 1 1 1 0 0 -1 -1 -1 -0 -0 -0 -1 -0 -0 -0 -0 0 0 0
0 0 1 0 -0 1 -0 0 -0 -0 -0 -0 -0 -0 -0 -0 0 0 0 0 -0 0
0 0 -0 -0 0 0 -0 -0 -0 -0 -0 -0 -0 -0 0 0 0 1 1 0 1 1
1 0 0 0 0 0 -0 -0 0 -0 0 0 0 0 0 0 1 1 1 1 1 1
0 0 0 1 0 -0 0 -0 -0 -0 0 1 1 0 1 1 1 1 2 2 1 1
1 1 1 1 0 -0 -0 -0 -0 -0 0 1 1 1 1 1 1 1 1 1 2 2
1 1 1 1 0 0 -0 0 0 -0 1 0 0 1 1 1 1 1 1 1 1 1
1 1 0 1 1 0 0 0 0 1 1 0 0 1 1 1 1 1 1 1 1 0
1 1 1 1 1 1 1 0 0 1 1 0 1 6 5 4 0 1 1 1 1 0
1 1 1 1 1 1 1 1 1 1 1 1 0 5 6 6 0 1 1 1 1 1
1 1 1 1 1 0 0 0 0 1 1 1 1 7 8 8 0 0 1 0 0 1
1 1 1 1 1 1 1 1 1 1 1 1 1 8 9 6 0 1 1 1 0 0
1 1 2 1 1 0 0 1 1 1 1 3 1 9 9 4 1 2 1 1 1 7
0 1 1 0 1 1 0 1 1 1 1 1 1 2 9 8 1 1 1 1 1 0

GFSNIL_con_lsi_024.txt.gz
Lid_Strength_Index
1 1 1 1 1 1 1 1 0 0 -0 0 0 0 0 1 1 1 1 1 1 2
1 1 1 1 0 1 0 1 0 -0 0 -0 0 0 1 1 1 1 1 1 1 1
1 1 1 0 1 1 0 1 1 0 0 0 0 0 1 1 1 1 1 1 1 1
1 1 1 1 1 1 -0 1 1 1 0 1 1 0 1 1 1 2 1 1 1 2
1 1 1 1 1 0 1 0 1 1 1 1 1 1 1 1 1 2 2 2 2 2
2 1 1 1 1 1 1 1 1 1 1 1 1 1 1 1 1 1 1 2 2 2
2 1 1 1 0 1 0 1 1 1 1 1 1 1 1 1 1 1 1 1 1 1
1 1 1 1 1 0 1 1 1 1 1 1 1 1 1 1 1 2 1 1 1 1
2 2 1 1 1 1 1 1 1 1 1 1 1 7 7 3 1 1 1 2 1 2
1 2 2 1 1 1 1 1 1 1 1 1 1 8 10 8 1 1 1 1 1 1
1 2 2 2 2 2 1 1 1 1 1 1 1 8 10 9 1 1 1 1 1 1
2 2 2 2 2 1 1 2 1 1 1 1 1 8 10 6 1 1 1 1 1 1
1 2 2 2 2 1 1 1 1 1 1 3 1 8 10 5 1 2 2 1 3 6
1 2 2 1 1 1 2 1 2 2 1 1 1 3 9 9 1 2 2 2 2 4

GFSNIL_con_lsi_027.txt.gz
Lid_Strength_Index
2 3 2 2 2 3 3 3 2 2 2 1 1 1 1 1 2 1 2 2 2 2
2 2 2 2 2 2 2 1 1 1 2 1 1 1 2 2 1 1 1 2 2 2
2 2 2 2 2 2 2 2 2 2 1 1 1 1 1 1 1 1 1 1 2 2
2 2 2 2 1 2 2 1 2 1 1 1 1 1 2 1 1 2 2 2 2 2
2 2 2 2 1 2 2 1 1 1 1 1 2 2 1 2 2 2 2 2 2 2
2 2 2 2 1 1 1 1 1 1 1 1 1 1 1 1 1 1 1 2 2 2
2 2 2 2 2 1 1 1 1 1 1 1 1 1 1 1 1 1 1 1 2 2
2 2 2 2 2 1 1 1 1 1 1 1 2 3 3 1 2 2 2 2 2 1
2 2 2 2 2 2 2 1 1 2 2 3 2 9 8 4 2 1 2 2 2 2
2 2 2 2 2 2 2 2 2 2 2 3 5 10 10 7 2 2 2 2 1 2
2 2 2 2 2 2 3 2 3 2 3 3 4 10 11 7 1 2 2 2 2 2
2 2 2 2 2 2 2 2 2 2 3 3 4 10 10 4 2 2 2 1 1 1
2 2 2 2 2 2 2 2 2 2 3 5 4 9 11 4 1 2 3 2 2 6
2 2 2 2 2 2 2 2 2 2 2 2 4 6 10 7 2 2 3 2 2 4

GFSNIL_con_lsi_030.txt.gz
Lid_Strength_Index
3 3 3 3 3 3 3 3 3 2 2 2 2 2 2 2 2 2 2 3 3 3
3 3 3 3 3 3 3 3 2 2 2 2 2 1 2 1 1 2 2 2 2 2
3 2 3 3 3 3 2 2 2 2 2 2 2 1 1 1 1 2 2 2 2 2
2 2 3 3 2 3 3 2 2 2 2 2 2 2 2 2 1 2 2 3 3 3
3 3 3 2 2 3 3 2 2 2 1 1 2 2 2 2 1 2 2 2 3 2
3 3 3 2 2 2 2 2 2 2 2 2 2 1 1 1 1 2 2 2 3 3
3 3 3 2 2 1 1 1 1 2 1 1 2 1 1 1 2 2 1 2 2 2
3 3 2 2 2 2 1 1 1 2 2 2 3 4 4 1 2 3 3 2 1 2
2 2 2 2 2 1 1 1 2 2 3 3 3 10 8 4 2 2 2 2 2 3
2 2 2 2 2 2 2 2 2 4 4 4 5 11 9 6 2 2 1 2 2 3
2 2 2 2 2 3 3 2 3 4 4 4 5 11 9 7 2 2 1 2 2 3
2 2 2 3 3 3 3 3 4 4 5 4 5 11 9 4 3 2 2 1 1 2
2 2 2 2 3 3 2 2 2 4 4 5 5 11 9 4 2 2 2 2 3 7
2 2 2 3 3 2 3 3 3 4 4 4 5 7 10 8 2 2 2 2 3 4

GFSNIL_con_lsi_033.txt.gz
Lid_Strength_Index
4 4 4 4 4 4 4 3 3 3 3 2 2 2 2 2 2 2 2 3 3 4
4 3 4 4 3 4 3 3 3 2 2 2 2 2 2 2 1 1 2 2 3 3
3 3 3 3 3 3 3 2 2 2 3 2 2 2 2 2 1 2 3 2 2 3
3 3 3 3 3 3 3 2 2 2 2 2 2 2 2 2 2 2 2 3 3 3
3 3 3 3 3 3 3 2 2 2 2 2 2 2 2 2 2 2 2 3 3 3
4 4 3 3 3 3 3 3 2 2 2 2 2 2 1 2 1 2 3 2 3 2
4 3 3 3 3 3 2 2 2 2 2 2 2 2 2 1 2 2 2 2 2 2
3 3 3 3 2 2 2 1 1 2 2 3 3 5 4 2 3 3 3 2 2 2
2 3 3 3 2 2 1 1 1 3 3 3 4 10 7 4 3 2 2 3 2 3
2 3 3 2 3 2 3 2 3 4 4 4 6 11 9 6 2 1 2 2 3 3
2 2 3 3 3 4 3 2 4 4 4 4 6 10 9 7 1 2 2 2 3 3
2 3 3 3 3 4 4 4 4 5 5 4 5 10 9 5 2 2 2 2 2 3
2 2 3 3 3 3 3 4 3 5 5 5 4 10 10 5 1 2 2 3 4 8
2 2 2 3 3 3 3 3 4 4 5 5 5 6 10 8 2 2 2 3 4 6

GFSNIL_con_lsi_036.txt.gz
Lid_Strength_Index
5 5 5 4 3 3 3 2 2 2 2 2 1 1 1 1 1 2 1 2 2 2
5 4 3 3 3 3 3 2 2 2 1 1 1 1 1 1 1 1 1 1 1 2
3 3 3 3 3 3 2 2 1 1 1 1 1 1 1 1 1 1 1 1 1 2
3 3 3 3 2 2 2 1 2 1 1 1 1 1 1 1 1 1 2 2 1 1
3 3 3 2 2 2 2 1 1 1 1 1 1 1 1 2 1 3 2 2 1 2
3 3 3 2 2 2 2 2 1 1 1 1 1 1 1 1 1 2 2 2 2 1
3 3 2 2 2 2 2 2 2 1 1 1 1 2 2 1 1 2 2 2 2 1
3 3 3 2 2 2 1 1 1 1 2 2 2 4 3 1 1 2 2 2 2 1
2 3 2 2 2 1 1 1 1 2 2 2 4 10 7 3 1 1 2 2 2 2
2 2 2 2 2 2 2 1 2 3 2 3 4 10 9 6 1 1 2 3 3 3
2 2 2 2 2 2 2 2 3 3 3 3 6 10 9 6 1 2 2 3 3 3
2 2 2 2 3 3 3 3 3 3 3 3 4 10 9 4 1 2 2 2 3 3
2 2 2 2 3 2 2 2 3 4 3 5 4 10 9 4 1 2 3 4 4 8
2 2 2 2 2 2 2 2 3 4 4 3 4 6 10 7 1 2 3 4 5 6

GFSNIL_con_lsi_042.txt.gz
Lid_Strength_Index
1 1 1 1 1 1 1 1 -0 -0 -0 -0 -0 -0 -1 -0 0 -0 0 0 0 1
1 1 1 0 0 0 -0 0 -0 -0 -0 -0 -0 -0 -0 0 0 -0 -0 1 0 0
1 1 0 0 0 0 -0 -0 -0 -0 -0 -0 -0 -0 -0 -0 -0 0 0 1 1 0
1 1 0 0 0 0 -0 -0 0 -0 0 0 -0 -0 -0 -0 0 0 1 1 1 1
1 1 1 1 0 -0 0 -0 -0 -0 0 0 0 -0 0 1 0 1 2 1 1 1
1 1 1 1 0 -0 0 -0 -0 -0 0 0 0 0 0 0 1 1 1 2 2 1
1 1 1 0 0 0 -0 0 0 0 0 0 -0 0 0 1 1 1 1 2 1 1
1 0 0 0 0 -0 -0 0 -0 0 0 -0 0 0 1 0 1 1 2 2 1 1
1 1 1 1 0 0 0 0 0 0 0 1 0 8 6 4 1 1 1 2 1 1
1 1 1 1 1 1 0 0 0 0 0 1 0 8 8 6 0 1 1 1 1 1
1 1 1 1 1 0 1 0 0 1 0 1 1 8 9 6 0 1 2 2 2 3
1 1 1 1 1 1 1 1 0 0 1 1 1 9 8 3 1 2 2 1 2 2
1 1 1 1 1 0 0 1 1 1 0 3 1 9 9 3 1 1 2 3 3 7
1 1 0 0 0 0 0 1 1 1 1 1 1 2 9 7 1 2 2 2 3 6

GFSNIL_con_lsi_045.txt.gz
Lid_Strength_Index
1 1 1 1 1 1 1 1 0 -0 -0 -0 -0 -0 -0 0 0 -0 0 0 0 1
1 1 1 1 1 1 1 1 0 -0 -0 -0 -0 -0 -0 0 0 -0 -0 0 0 1
1 1 1 1 0 0 0 0 0 -0 -0 -0 -0 -0 -0 -0 -0 0 0 0 1 1
2 1 1 1 0 0 0 0 0 0 0 0 0 -0 -0 0 0 1 1 0 1 1
1 1 1 1 0 0 0 -0 0 0 0 0 0 0 0 1 0 1 1 2 1 1
1 1 1 1 0 0 0 0 -0 0 0 1 0 1 0 1 1 1 1 1 2 1
1 1 1 0 0 0 0 0 0 0 0 0 0 0 1 1 1 1 1 1 2 2
1 1 1 1 0 0 0 0 1 1 0 0 0 1 1 1 1 1 2 2 2 1
1 1 1 1 1 0 1 1 1 1 1 1 1 8 6 2 1 1 1 2 1 0
1 1 2 1 1 1 1 1 1 0 1 1 0 8 7 6 1 1 1 2 1 1
1 1 1 1 1 1 0 1 1 0 1 1 1 7 7 6 0 1 1 2 1 1
1 2 1 2 2 1 1 1 1 0 1 1 1 8 7 4 1 1 2 2 2 1
1 1 2 2 1 1 1 1 1 1 1 3 1 8 7 3 1 2 2 2 3 6
1 2 1 1 1 1 1 1 1 1 1 1 1 1 8 7 1 1 2 3 4 6

GFSNIL_con_lsi_048.txt.gz
Lid_Strength_Index
1 2 2 2 2 2 2 1 1 1 1 1 0 0 0 1 1 1 1 1 1 2
2 2 2 1 1 1 1 1 1 1 1 1 0 1 1 1 1 1 1 1 1 2
2 1 1 1 2 1 1 1 1 1 1 1 1 1 1 1 1 1 1 1 1 1
2 1 1 1 1 1 1 1 1 1 1 1 1 1 1 1 1 1 1 1 1 2
2 2 2 2 1 1 1 1 1 1 1 1 1 1 1 1 1 2 2 2 2 2
2 2 2 2 1 1 1 1 1 1 1 1 1 1 1 1 1 1 1 1 2 2
2 2 2 1 1 1 1 1 1 1 1 1 1 1 1 1 1 1 1 1 2 2
2 1 1 1 1 1 1 1 1 1 1 1 1 2 1 1 1 1 2 2 2 2
2 2 2 1 1 1 1 1 1 1 1 1 2 9 6 2 1 1 2 3 2 1
2 2 2 1 2 2 2 1 2 1 1 1 2 8 7 6 1 1 1 2 2 1
2 2 2 2 2 2 2 2 2 2 1 1 2 8 8 4 1 1 1 2 1 1
2 2 2 2 2 2 2 1 1 1 1 1 1 7 7 3 1 1 1 2 1 1
2 2 2 2 2 2 1 2 1 2 1 3 1 8 6 3 1 2 3 3 2 8
2 2 2 1 1 1 2 2 2 2 1 1 1 3 8 9 1 2 3 3 4 4